Flag for Russia Weather past 2 weeks in Bryansk, Russia

Now
23 °F

Ice fog.


Feels Like: 23 °F
Forecast: 20 / 29 °F
Wind: No wind

Location: Brjansk

Current Time: Jan 28, 2015 at 2:26:20 AM

Latest Report: Jan 28, 2015 at 12:00 AM


Visibility: 3 mi

Pressure: 30.01 "Hg

Humidity: 93%

Dew point: 21 °F

Location of BryanskLocation

Historic Weather in Bryansk — Graph

°F

Bryansk temperature yesterday

Maximum temperature yesterday: 25 °F (at 1:00 PM)
Minimum temperature yesterday: 19 °F (at 12:00 AM)
Average temperature yesterday: 22 °F

Past Weeks' High & Low Weather Summary

 TemperatureHumidityPressure
High39 °F (Jan 14, 1:00 PM)100% (Jan 13, 1:00 PM)30.33 "Hg (Jan 13, 1:00 PM)
Low12 °F (Jan 25, 8:00 AM)70% (Jan 14, 2:00 PM)29.65 "Hg (Jan 13, 9:00 AM)
Average28 °F90%30.12 "Hg
* Reported Jan 13 9:00 AM — Midnight between Jan 27 and Jan 28, Bryansk, Weather by CustomWeather, © 2014

Note: Actual official high and low records may vary slightly from our data, if they occured in-between our weather recording intervals... More about our weather records

Advertising

Bryansk weather history for previous 24 hours

 ConditionsComfort  
Time TempWeatherWind HumidityBarometerVisibility
12:00 AM
Jan 28
23 °FIce fog.No wind93%30.01 "Hg3 mi
11:00 PM
Jan 27
23 °FSnow flurries. Ice fog.1 mph100%30.01 "Hg2 mi
10:00 PM23 °FSnow flurries. Ice fog.1 mph100%30.01 "Hg2 mi
9:00 PM25 °FSnow flurries. Ice fog.1 mph93%30.01 "Hg3 mi
8:00 PM25 °FSnow flurries. Ice fog.No wind93%30.01 "Hg3 mi
7:00 PM25 °FSnow flurries. Overcast.No wind93%30.01 "Hg4 mi
6:00 PM25 °FOvercast.No wind93%30.01 "Hg5 mi
5:00 PM25 °FMostly cloudy.No wind93%30.01 "Hg5 mi
4:00 PM25 °FSnow flurries. Partly sunny.No wind93%30.01 "Hg5 mi
3:00 PM25 °FSnow flurries. Partly sunny.No wind93%30.01 "Hg4 mi
2:00 PM25 °FSnow flurries. Mostly cloudy.No wind93%30.04 "Hg4 mi
1:00 PM25 °FLight snow. Ice fog.No wind86%30.04 "Hg2 mi
12:00 PM23 °FLight snow. Ice fog.No wind93%30.07 "Hg2 mi
11:00 AM23 °FLight snow. Ice fog.No wind93%30.07 "Hg1 mi
10:00 AM21 °FLight snow. Mostly cloudy.No wind93%30.07 "Hg4 mi
9:00 AM21 °FLight snow. Ice fog.No wind93%30.07 "Hg3 mi
8:00 AM21 °FLight snow. Low clouds.No wind93%30.07 "Hg6 mi
7:00 AM21 °FLight snow. Low clouds.No wind93%30.07 "Hg6 mi
6:00 AM21 °FLight snow. Mostly cloudy.No wind93%30.09 "Hg4 mi
5:00 AM19 °FLight snow. Mostly cloudy.1 mph93%30.09 "Hg4 mi
4:00 AM19 °FLight snow. Low clouds.No wind93%30.09 "Hg4 mi
3:00 AM21 °FLight snow. Ice fog.No wind93%30.12 "Hg2 mi
2:00 AM19 °FOvercast.No wind100%30.12 "HgN/A
Weather by CustomWeather, © 2014

See weather overviewHow to use our weather pages